Temperature
22 21 21 20 19 18 18 17 16 15 14 13 13 12 12 11 11 11 11 10 10 10 10 9 9 9 9 9 9 9 8 8 8 8 8 8 8 8 7 7 7 6 6
21 21 21 20 19 18 17 17 16 15 14 14 14 13 12 11 11 11 11 10 10 10 10 10 9 9 9 9 9 9 8 8 8 7 7 7 7 7 7 7 7 6 6
21 20 20 19 19 18 17 16 16 15 14 14 13 12 11 11 11 10 10 10 10 10 10 10 10 9 9 9 9 9 8 8 7 7 7 6 6 7 7 6 6 6 5
20 20 19 18 18 17 17 16 15 15 14 14 13 12 12 11 11 11 11 10 10 10 10 10 10 9 9 9 9 9 8 8 7 7 6 6 5 5 5 6 6 5 5
19 19 18 18 17 16 16 15 15 14 14 13 13 12 12 11 11 11 10 10 10 10 10 10 10 9 9 9 9 8 8 8 7 7 6 6 5 5 4 4 5 5 5
19 18 17 17 16 15 15 14 14 13 13 13 12 12 11 11 11 10 10 10 10 10 10 10 10 9 9 9 9 8 8 8 7 7 6 6 5 5 4 3 4 4 5
18 17 17 16 15 14 14 13 13 13 12 12 12 12 11 11 11 11 11 10 10 10 10 10 9 9 9 9 9 8 8 7 7 6 6 5 5 4 4 3 3 3 4
17 17 16 15 14 14 13 12 12 12 12 12 12 11 11 11 10 10 11 11 11 11 10 10 9 9 9 9 8 8 7 7 7 6 6 5 5 4 4 3 2 2 2
17 16 15 14 14 13 12 12 12 12 12 12 11 11 10 10 10 10 10 10 10 10 10 10 9 9 9 8 8 7 7 7 6 6 5 5 5 4 4 3 2 1 0
16 15 15 14 13 12 12 11 11 11 11 11 11 11 10 10 10 10 10 10 10 10 10 9 9 9 8 8 8 7 7 6 6 5 5 5 4 4 3 3 2 1 1
16 15 15 14 13 12 12 11 11 11 11 11 11 10 10 10 10 10 10 10 10 10 10 9 9 9 8 8 7 7 6 6 5 5 5 4 4 3 3 2 2 1 0
16 15 14 14 13 12 12 11 11 11 11 11 11 10 10 10 10 10 10 10 10 10 9 9 9 8 8 7 7 6 6 6 5 5 4 4 3 3 3 2 2 1 0
16 15 15 14 13 12 12 11 11 11 11 10 10 10 10 10 10 10 10 10 10 10 9 9 8 8 7 7 6 6 6 5 5 4 4 4 3 3 2 2 1 1 -0
17 16 15 14 13 13 12 12 11 11 11 10 10 10 10 10 10 10 10 10 10 9 9 8 8 7 7 7 6 6 5 5 4 4 4 3 3 2 2 1 1 0 -1
17 16 16 15 14 13 12 11 11 11 11 10 10 10 10 10 10 10 10 9 9 9 8 8 7 7 7 6 6 5 5 4 4 4 3 3 2 2 1 1 0 -1 -1
17 17 16 15 14 13 12 12 11 11 10 10 10 10 9 9 9 9 9 9 9 8 8 7 7 7 6 6 5 5 4 4 3 3 3 2 2 1 1 0 -1 -1 -2
17 16 16 15 15 14 13 12 11 11 10 10 9 9 9 9 9 9 8 8 8 8 7 7 6 6 6 5 5 4 4 3 3 3 2 2 1 1 0 -1 -1 -2 -2
16 16 15 15 14 14 13 12 11 10 10 9 9 9 8 8 8 8 8 8 8 7 7 6 6 5 5 5 4 4 3 3 2 2 2 1 1 0 -1 -1 -2 -2 -2
16 15 15 15 14 13 12 11 11 10 9 9 9 8 8 8 8 7 7 7 7 7 6 6 5 5 5 4 4 3 2 2 2 1 1 0 -0 -1 -2 -2 -2 -3 -3
15 15 14 14 13 12 12 11 10 9 9 9 8 8 7 7 7 7 7 6 6 6 6 5 5 4 4 4 3 2 2 1 1 1 0 -0 -1 -2 -2 -3 -3 -3 -3
14 14 13 13 12 12 11 10 10 9 9 8 7 7 7 6 6 6 6 5 5 5 5 4 4 4 3 3 2 2 1 1 0 -0 -1 -1 -2 -3 -3 -4 -4 -4 -4
13 13 12 12 11 11 11 10 9 8 8 7 7 6 6 6 5 5 5 5 4 4 4 4 3 3 2 2 1 1 0 -0 -1 -1 -2 -2 -3 -4 -4 -4 -5 -5 -5
12 12 12 11 11 10 10 9 8 8 7 6 6 5 5 5 4 4 4 4 4 3 3 3 2 2 2 1 0 -0 -1 -2 -2 -2 -3 -4 -4 -5 -5 -5 -5 -6 -6
11 11 11 11 10 9 9 9 8 7 7 6 5 5 5 4 4 3 3 3 3 3 2 2 1 1 1 0 -0 -1 -2 -2 -3 -3 -4 -5 -5 -5 -5 -5 -6 -6 -6
11 10 10 10 9 9 8 8 7 7 6 6 5 4 4 4 3 3 3 3 2 2 1 1 1 -0 -0 -1 -1 -2 -3 -3 -4 -5 -5 -5 -5 -6 -6 -6 -6 -7 -7
10 10 9 9 8 8 7 7 6 6 6 5 5 4 3 3 3 2 2 2 1 1 1 0 -0 -1 -1 -2 -3 -3 -4 -4 -5 -6 -6 -6 -6 -6 -7 -7 -7 -7 -8
Wind_Speed
10 9 10 11 11 11 12 15 15 14 12 11 11 10 9 7 7 7 12 13 13 12 8 5 4 4 3 3 3 2 0 0 1 2 4 4 3 2 1 0 1 1 1
7 6 8 10 11 11 12 14 15 15 13 11 10 9 8 6 6 6 8 12 12 12 9 6 4 4 3 3 3 2 1 0 1 1 2 4 4 2 1 1 0 1 2
8 6 7 9 10 11 12 12 14 14 13 12 9 8 6 5 5 7 7 8 12 12 10 8 6 5 4 4 3 3 3 1 0 2 2 1 2 3 4 2 1 1 2
6 6 7 9 10 10 10 11 12 13 14 14 13 14 10 8 7 7 6 7 10 11 11 9 8 5 4 5 4 3 2 3 1 0 1 1 2 0 4 4 3 3 3
5 6 7 8 9 9 9 10 10 12 13 14 14 14 10 7 7 8 9 8 7 9 11 10 8 6 4 5 5 4 3 2 2 1 1 0 0 1 2 4 5 4 4
5 6 6 6 7 8 8 9 10 11 12 13 14 14 13 11 12 11 11 9 7 6 8 9 8 6 5 6 5 4 4 2 2 1 2 2 2 2 2 4 4 5 5
5 6 7 8 9 10 9 9 11 11 12 13 14 14 13 13 14 13 11 11 8 6 8 7 6 6 6 6 5 4 4 3 3 2 2 2 2 2 2 3 4 4 4
5 6 7 8 9 10 10 10 11 11 12 13 13 12 12 10 10 11 10 10 8 8 9 8 8 8 8 7 5 4 4 3 4 3 3 2 2 2 2 3 3 4 4
6 6 7 8 9 11 11 11 12 11 12 12 11 11 12 11 10 11 10 8 8 8 10 9 8 8 8 7 6 4 4 4 4 4 4 3 3 3 3 3 3 3 5
7 7 7 8 9 10 10 11 11 11 11 12 11 10 11 11 11 11 11 10 10 10 11 10 9 8 7 7 6 5 4 5 4 4 4 4 4 4 4 4 4 5 6
8 7 7 8 9 9 10 10 11 11 11 11 10 10 10 10 11 11 11 11 10 11 11 10 10 9 8 7 6 6 6 6 5 4 5 6 5 4 4 4 5 6 6
7 8 8 8 9 10 10 10 10 10 11 11 10 11 10 11 11 11 11 11 11 11 10 10 9 9 8 7 7 7 6 6 6 6 6 7 5 6 6 5 7 7 7
8 7 8 9 9 10 10 10 10 10 10 11 11 11 11 12 12 11 11 11 11 11 10 10 10 9 8 7 7 6 6 6 6 6 6 7 7 7 6 7 7 7 7
9 9 9 9 9 10 10 10 10 10 10 11 11 11 12 12 11 11 11 11 11 11 10 9 9 8 8 7 6 5 5 5 5 6 7 7 8 8 8 8 8 7 7
9 10 9 9 9 10 10 10 10 11 11 11 11 11 11 10 10 11 11 10 10 10 9 9 8 8 7 7 7 6 6 6 6 7 7 8 11 13 12 9 8 7 7
8 9 9 9 10 10 10 10 10 10 10 11 10 10 10 10 11 11 11 10 9 9 9 9 8 8 7 10 12 9 6 7 7 8 8 9 11 15 19 21 19 15 10
6 8 9 9 9 10 10 11 10 10 11 10 10 10 11 11 10 11 11 10 10 9 8 8 8 8 8 11 12 13 8 7 8 8 8 9 9 13 9 14 18 17 20
7 7 7 8 7 8 9 9 9 10 10 10 10 10 11 10 10 10 10 9 8 8 8 7 8 7 8 11 12 13 8 7 8 9 9 9 10 9 10 8 8 9 10
6 6 6 7 7 8 9 10 9 9 10 10 10 10 11 11 11 10 10 7 7 6 6 7 7 7 7 11 12 11 6 7 9 9 9 10 9 16 18 11 9 9 9
7 6 6 7 7 8 9 10 9 9 9 9 9 9 10 10 10 9 7 6 6 6 6 5 6 7 7 10 12 12 5 7 7 7 8 13 14 17 19 10 9 10 10
8 8 8 7 7 8 9 9 9 8 8 8 9 9 9 9 8 7 6 6 5 5 5 5 5 6 7 9 12 13 6 7 7 7 6 7 16 19 20 17 10 15 16
8 8 8 7 7 8 10 9 8 8 9 9 9 8 8 7 7 7 6 6 6 5 5 4 5 5 5 7 10 14 13 11 8 7 6 8 17 20 21 17 18 23 21
8 8 9 9 7 7 9 10 8 9 10 9 9 8 8 6 6 6 6 5 5 4 4 4 4 4 4 6 12 14 15 16 10 8 14 17 21 20 15 18 23 20 10
8 8 9 9 8 8 9 9 9 9 10 9 8 7 7 6 5 4 4 4 4 4 4 4 5 5 4 4 5 5 7 11 11 10 14 19 20 17 17 17 14 9 8
7 8 9 10 9 9 9 9 9 9 10 9 7 6 5 5 4 3 3 4 4 5 5 5 5 5 6 8 11 8 6 6 8 9 7 6 7 7 7 8 8 7 7
9 9 10 10 10 10 9 8 8 9 9 8 6 5 4 4 3 2 1 2 4 6 8 8 7 7 11 14 15 16 17 18 18 14 8 8 8 9 8 8 7 6 6
Wind_Direction
230 206 188 178 174 172 166 168 171 177 174 174 177 178 179 170 165 164 169 172 173 176 170 158 157 145 151 160 148 132 105 9 38 353 317 304 262 180 151 52 9 355 6
241 208 179 171 172 173 171 170 173 177 178 178 177 174 167 165 161 157 164 169 170 168 166 158 154 146 143 136 131 127 118 92 92 87 352 341 340 354 335 343 341 1 4
230 206 181 177 173 176 177 177 176 175 175 168 163 157 147 140 151 162 167 167 165 162 162 161 149 144 146 150 144 137 141 147 119 113 118 86 300 321 313 301 321 349 341
212 188 180 180 180 179 173 175 174 173 172 167 169 169 172 170 172 167 163 163 160 157 157 153 146 143 143 144 146 138 138 134 156 116 124 168 166 149 313 315 322 342 325
185 182 181 183 177 167 165 169 170 171 169 171 172 174 174 169 155 156 159 160 154 150 152 150 145 145 145 143 138 134 137 143 154 147 130 296 356 210 218 283 304 317 303
180 174 172 163 159 153 155 162 167 172 171 173 176 179 176 169 161 162 165 162 155 153 153 150 148 146 141 140 141 142 144 147 147 158 169 174 192 226 228 258 288 295 290
163 166 163 162 158 155 160 168 173 174 173 177 181 184 179 171 168 167 167 163 160 161 162 152 152 148 143 142 141 148 159 166 172 192 205 201 210 212 221 254 279 290 294
152 155 158 160 159 161 166 175 179 178 177 180 184 184 176 171 170 168 166 167 166 163 157 156 155 151 149 149 151 159 173 174 185 203 204 209 232 224 217 223 257 297 295
150 153 158 163 162 167 174 180 181 180 180 181 182 180 173 168 166 163 160 161 157 155 155 157 156 153 153 157 159 173 183 182 194 203 211 217 228 226 226 221 207 222 274
152 158 166 169 167 169 173 179 181 181 178 179 179 176 169 166 161 158 160 157 154 153 155 158 158 158 160 164 168 176 185 187 198 198 211 229 231 231 227 224 226 219 235
161 169 169 167 164 164 171 179 180 174 175 176 171 166 166 161 157 159 159 156 153 155 159 160 160 163 168 171 175 184 187 196 208 210 216 231 231 232 234 232 233 236 235
165 166 163 163 165 168 173 177 177 174 174 170 167 166 161 157 158 160 159 156 155 158 160 159 161 167 172 176 181 192 193 199 214 222 225 236 237 238 237 237 240 242 240
169 166 166 171 174 174 176 178 177 173 169 166 165 163 162 162 163 162 160 157 156 158 158 160 166 171 174 179 187 192 197 206 216 221 227 237 239 247 246 244 247 249 255
176 176 179 180 178 177 178 178 177 171 168 166 166 167 168 167 165 162 160 159 158 160 163 165 168 171 174 180 187 193 201 216 228 233 235 239 240 246 249 253 252 254 261
182 181 180 179 177 177 178 177 176 171 168 168 170 171 167 164 161 160 159 157 158 161 161 162 167 170 175 186 189 195 206 222 239 246 245 246 247 251 255 257 251 248 256
190 181 177 177 178 178 177 174 172 169 165 168 170 164 162 161 161 160 156 155 157 158 160 168 172 179 189 197 201 200 207 219 231 244 249 251 254 259 265 268 268 262 259
188 180 177 179 177 175 173 173 168 162 164 166 163 161 160 161 161 157 155 159 163 163 169 175 179 189 199 204 213 217 214 223 234 242 250 261 260 266 258 267 271 271 271
175 172 166 166 164 161 160 157 156 158 160 161 161 160 158 159 156 158 162 165 166 170 175 182 186 193 206 212 222 227 225 232 242 246 250 256 260 259 265 257 256 253 259
149 143 144 146 147 149 150 146 148 151 156 161 160 159 158 158 159 164 167 165 165 171 176 180 186 199 216 221 226 230 223 236 247 251 254 259 262 273 279 275 267 266 263
111 114 117 120 130 139 138 140 146 150 159 159 154 152 153 156 161 163 162 159 162 169 172 184 196 207 221 229 231 233 223 240 251 254 255 265 273 280 282 275 268 272 273
110 108 108 113 124 128 129 135 139 149 145 137 136 139 144 149 152 152 152 152 156 163 179 197 212 219 226 236 240 242 232 233 248 255 257 261 279 282 283 282 275 277 283
116 114 109 106 107 117 125 128 133 130 124 125 128 131 134 139 144 147 152 156 160 174 194 210 229 236 236 240 249 255 257 259 253 258 260 267 281 283 284 285 283 286 290
124 118 117 110 102 109 120 125 125 121 121 121 124 126 126 131 141 150 157 162 168 182 203 212 231 245 244 252 259 264 268 271 270 269 276 281 285 287 287 286 287 288 283
127 125 122 118 112 107 109 117 120 120 121 123 125 127 131 137 140 143 153 164 181 194 209 223 237 248 252 254 257 258 270 276 278 280 281 285 286 286 284 285 285 275 266
128 126 126 122 116 110 108 112 118 121 121 121 123 125 128 133 138 147 169 182 200 201 210 224 228 242 257 260 269 276 272 268 270 285 279 274 276 269 268 271 269 266 267
129 126 124 121 117 113 111 111 114 118 121 124 125 126 128 131 139 152 197 236 235 247 249 252 256 261 269 282 285 287 289 291 291 291 282 279 277 277 277 278 275 269 265
Height
1467 1468 1469 1471 1474 1478 1480 1482 1485 1489 1493 1496 1499 1503 1507 1511 1514 1517 1520 1523 1526 1529 1531 1533 1535 1536 1537 1537 1538 1538 1538 1537 1536 1535 1534 1533 1533 1533 1532 1532 1531 1531 1530
1461 1462 1463 1465 1467 1471 1474 1476 1479 1483 1486 1490 1493 1498 1502 1506 1510 1514 1517 1520 1523 1525 1528 1530 1531 1533 1534 1534 1535 1535 1535 1535 1534 1534 1532 1531 1532 1531 1531 1530 1529 1528 1528
1455 1456 1458 1459 1462 1464 1468 1471 1473 1477 1481 1485 1490 1494 1499 1503 1506 1509 1512 1516 1519 1522 1524 1527 1528 1529 1530 1531 1532 1532 1532 1532 1532 1532 1532 1531 1530 1529 1528 1528 1527 1526 1525
1449 1450 1452 1454 1456 1459 1462 1466 1469 1472 1476 1480 1483 1487 1490 1494 1498 1503 1507 1512 1515 1518 1521 1523 1525 1526 1527 1528 1529 1530 1530 1530 1530 1530 1530 1530 1529 1528 1526 1525 1524 1523 1522
1444 1445 1447 1449 1451 1454 1457 1460 1464 1467 1471 1474 1478 1482 1487 1491 1495 1500 1504 1507 1511 1514 1517 1519 1521 1523 1524 1525 1526 1527 1527 1527 1527 1527 1527 1527 1526 1526 1524 1521 1520 1519 1518
1440 1441 1443 1444 1446 1449 1451 1455 1458 1462 1466 1470 1474 1478 1482 1487 1491 1495 1499 1503 1506 1510 1513 1515 1518 1519 1521 1522 1523 1524 1524 1525 1525 1524 1524 1524 1523 1522 1521 1519 1516 1514 1513
1436 1437 1438 1439 1441 1443 1446 1449 1453 1457 1461 1466 1470 1474 1479 1483 1486 1490 1494 1498 1501 1505 1508 1511 1514 1516 1517 1519 1520 1521 1521 1521 1521 1521 1521 1521 1520 1519 1518 1516 1513 1510 1508
1433 1434 1435 1436 1438 1439 1442 1445 1449 1453 1457 1462 1466 1471 1475 1479 1483 1487 1490 1494 1498 1501 1505 1508 1510 1512 1514 1515 1516 1517 1518 1518 1518 1518 1518 1517 1516 1516 1514 1513 1511 1506 1503
1430 1431 1432 1433 1435 1436 1438 1442 1445 1449 1454 1458 1462 1467 1471 1475 1479 1483 1487 1491 1495 1498 1501 1504 1506 1508 1510 1512 1513 1513 1514 1514 1514 1514 1514 1513 1512 1511 1510 1509 1507 1506 1500
1427 1429 1430 1431 1432 1434 1436 1439 1443 1446 1450 1455 1459 1463 1467 1472 1476 1480 1483 1487 1491 1494 1497 1500 1502 1504 1506 1508 1509 1510 1510 1510 1510 1510 1510 1509 1508 1507 1506 1504 1503 1501 1498
1425 1426 1427 1429 1430 1432 1434 1436 1440 1443 1447 1451 1455 1460 1464 1468 1472 1476 1480 1483 1487 1490 1493 1496 1498 1500 1502 1504 1505 1505 1506 1506 1506 1506 1505 1504 1503 1502 1501 1499 1498 1496 1493
1422 1424 1425 1426 1428 1429 1431 1434 1437 1440 1444 1448 1452 1456 1460 1464 1468 1472 1476 1480 1483 1487 1489 1492 1494 1496 1498 1499 1500 1501 1501 1502 1501 1501 1500 1499 1498 1497 1496 1494 1492 1490 1487
1419 1421 1422 1423 1425 1426 1428 1431 1434 1437 1441 1445 1449 1453 1456 1460 1464 1468 1472 1476 1479 1482 1485 1488 1490 1492 1494 1495 1496 1497 1497 1497 1496 1496 1495 1494 1493 1491 1490 1488 1486 1484 1481
1416 1417 1419 1420 1422 1423 1425 1428 1431 1434 1437 1441 1445 1448 1452 1456 1460 1464 1468 1471 1475 1478 1481 1483 1486 1488 1489 1491 1491 1492 1492 1492 1491 1491 1490 1489 1487 1486 1484 1482 1479 1477 1475
1411 1413 1414 1416 1418 1420 1422 1424 1427 1430 1433 1437 1440 1444 1448 1453 1457 1460 1464 1467 1471 1474 1476 1479 1481 1483 1485 1486 1487 1487 1486 1486 1486 1485 1484 1483 1481 1479 1477 1475 1473 1471 1468
1407 1408 1410 1412 1413 1415 1417 1420 1423 1426 1430 1433 1437 1441 1445 1448 1452 1456 1460 1463 1466 1469 1472 1474 1477 1478 1480 1481 1481 1481 1481 1480 1479 1478 1477 1476 1474 1472 1470 1468 1466 1465 1462
1402 1404 1406 1407 1409 1411 1413 1416 1419 1423 1426 1429 1433 1437 1440 1444 1448 1452 1456 1459 1462 1465 1467 1470 1472 1473 1475 1476 1476 1475 1475 1474 1473 1472 1470 1468 1467 1465 1463 1461 1459 1457 1455
1398 1400 1402 1403 1406 1408 1410 1413 1416 1419 1422 1426 1429 1433 1437 1441 1445 1448 1451 1455 1458 1460 1463 1465 1467 1469 1470 1470 1470 1470 1469 1467 1466 1465 1463 1461 1459 1458 1456 1453 1450 1447 1446
1393 1395 1398 1400 1402 1404 1407 1410 1413 1416 1419 1422 1425 1429 1433 1437 1441 1444 1448 1451 1454 1456 1458 1461 1462 1463 1464 1465 1465 1464 1462 1460 1459 1458 1456 1454 1452 1450 1448 1445 1442 1439 1437
1389 1392 1394 1396 1399 1401 1404 1407 1410 1413 1416 1419 1423 1426 1430 1434 1437 1441 1444 1447 1450 1452 1454 1456 1457 1458 1459 1459 1459 1457 1455 1453 1451 1450 1448 1447 1444 1442 1440 1438 1434 1430 1428
1386 1389 1391 1394 1396 1399 1402 1405 1408 1410 1414 1417 1421 1424 1427 1431 1434 1438 1441 1444 1446 1448 1450 1451 1452 1453 1453 1453 1452 1451 1449 1446 1443 1441 1439 1438 1436 1434 1432 1430 1427 1423 1421
1384 1386 1389 1392 1395 1397 1400 1402 1406 1409 1412 1415 1419 1422 1425 1428 1432 1435 1437 1440 1442 1444 1445 1446 1446 1447 1447 1446 1445 1444 1442 1439 1436 1433 1431 1429 1427 1425 1424 1421 1419 1416 1414
1382 1385 1388 1391 1393 1396 1399 1401 1404 1407 1410 1414 1417 1420 1423 1426 1429 1432 1434 1436 1438 1439 1440 1440 1440 1440 1440 1439 1438 1436 1434 1432 1429 1426 1423 1421 1419 1417 1414 1412 1410 1408 1406
1381 1384 1387 1389 1392 1395 1398 1401 1403 1406 1409 1412 1415 1418 1421 1424 1427 1429 1431 1432 1433 1434 1435 1434 1434 1433 1432 1432 1430 1428 1426 1424 1421 1418 1415 1413 1411 1408 1406 1404 1401 1400 1398
1380 1383 1386 1388 1391 1394 1397 1400 1403 1406 1408 1411 1414 1417 1419 1421 1423 1425 1427 1428 1429 1430 1430 1429 1428 1427 1425 1424 1423 1421 1418 1416 1413 1410 1406 1404 1401 1399 1397 1395 1393 1391 1389
1378 1382 1385 1388 1391 1394 1397 1400 1403 1405 1408 1410 1413 1415 1417 1419 1421 1422 1424 1424 1425 1425 1424 1424 1423 1420 1419 1417 1415 1413 1410 1408 1406 1403 1398 1395 1393 1391 1389 1387 1385 1383 1382